sat.trackr.live / text

‹ back to catalog

STARLINK-5426

NORAD 54802 · 2022-175AW

PAYLOAD ACTIVE UNKNOWN

§ Identity

Operator
Country
US
Launch date
2022-12-17
Launch site
AFETR
Launch vehicle
Mass (kg)
RCS (m²)

Purposes: comms

External: N2YO · Heavens-Above · Gunter

§ Orbital elements

Epoch: 2026-09-20T22:00:03.000096Z

Period
94.46 min
Inclination
53.1611°
Eccentricity
0.0001190
Mean motion
15.24464274 rev/d
Perigee alt
491.6 km
Apogee alt
493.2 km
Semi-major
6,870.5 km
B*
7.8375e-4
RAAN
191.0465°
Arg perigee
110.8256°
Mean anomaly
107.5796°
Rev number
564

§ Raw data

STARLINK-54261 54802U 22175AW  26263.91670139  .00019210  00000+0  78375-3 0  99962 54802  53.1611 191.0465 0001190 110.8256 107.5796 15.24464274  5647

JSON: /api/v1/satellites/54802 · /tle

For live sub-satellite position, see the globe view (requires WebGL).

§ Visibility from observer

Set your observer location to see the next 7 days of passes ≥ 10°. The values pass through the URL so the page stays shareable.

No JS? Fill the form by hand. The geolocation button needs JavaScript.